Retour au catalogue

NOAA 16 DEB

ActifSSO
NORAD 41131·DEBRIS·🇺🇸 United States

Lancé Sep 21, 2000 depuis Vandenberg Space Force Base

Loading…

Prochains Passages (prochaines 24 heures)

TLE

FraisSource: Space-Track

Époque: Sep 14, 2026, 05:18 UTC

1 41131U 00055BN  26257.22117002  .00001534  00000-0  88430-3 0  9996
2 41131  98.7880 256.7783 0055018 123.2564 237.3895 14.09826617550676

Suivez NOAA 16 DEB en temps réel avec AllMySat

Download on the App Store